Weather History for Massena, NY

Change the Weather History Date:

Wednesday, November 21, 2012

  Actual Average Record
Temperature  
Mean Temperature 35 °F 33 °F  
Max Temperature 49 °F 41 °F 59 °F (1992)
Min Temperature 20 °F 26 °F 2 °F (1967)
Degree Days  
Heating Degree Days 30 32  
Month to date heating degree days 635 584  
Since 1 July heating degree days 1280 1465  
Moisture  
Dew Point 25 °F    
Average Humidity 71    
Maximum Humidity 92    
Minimum Humidity 50    
Precipitation  
Precipitation 0.00 in 0.10 in 0.95 in (1954)
Month to date precipitation 0.49 2.18  
Year to date precipitation 26.38 31.68  
Sea Level Pressure  
Sea Level Pressure 30.24 in    
Wind  
Wind Speed 0 mph (WNW)    
Max Wind Speed 5 mph    
Max Gust Speed 9 mph    
Visibility 6 miles    
Events      
T = Trace of Precipitation, MM = Missing Value Source: NWS Daily Summary

Daily Weather History Graph

Daily Weather History Graph

Search for Another Location

Airport:

Trip Planner

Search our weather history database for the weather conditions in past years. The results will help you decide how hot, cold, wet, or windy it might be!

Date:

Astronomy

Nov. 21, 2012 Rise Set
Actual Time 7:05 AM EST 4:24 PM EST
Civil Twilight 6:33 AM EST 4:57 PM EST
Nautical Twilight 5:57 AM EST 5:33 PM EST
Astronomical Twilight 5:22 AM EST 6:08 PM EST
Moon 12:55 PM EST 12:05 AM EST
Length of Visible Light 10h 24m
Length of Day
9h 19m
First Quarter, 61% of the Moon is Illuminated
Nov 21
First Quarter
Nov 28
Full
Dec 6
Last Quarter
Dec 13
New
Dec 20
First Quarter

Hourly Weather History & Observations

Time (EST) Temp. Windchill Dew Point Humidity Pressure Visibility Wind Dir Wind Speed Gust Speed Precip Events Conditions
12:53 AM 25.0 °F - 21.9 °F 88% 30.21 in 6.0 mi Calm Calm - N/A   Clear
1:53 AM 23.0 °F - 19.9 °F 88% 30.21 in 4.0 mi Calm Calm - N/A   Partly Cloudy
2:53 AM 25.0 °F - 23.0 °F 92% 30.21 in 2.5 mi Calm Calm - N/A   Partly Cloudy
3:02 AM 24.8 °F - 19.4 °F 80% 30.20 in 4.0 mi Calm Calm - N/A   Partly Cloudy
3:53 AM 21.0 °F - 18.0 °F 88% 30.22 in 6.0 mi Calm Calm - N/A   Clear
4:08 AM 23.0 °F - 19.4 °F 86% 30.20 in 2.5 mi Calm Calm - N/A   Clear
4:17 AM 21.2 °F - 19.4 °F 93% 30.21 in 4.0 mi Calm Calm - N/A   Clear
4:53 AM 21.0 °F - 19.0 °F 92% 30.24 in 5.0 mi Calm Calm - N/A   Clear
5:53 AM 23.0 °F - 19.9 °F 88% 30.25 in 4.0 mi Calm Calm - N/A   Mostly Cloudy
6:53 AM 24.1 °F - 21.0 °F 88% 30.27 in 5.0 mi Calm Calm - N/A   Clear
7:45 AM 23.0 °F - 21.2 °F 93% 30.26 in 2.5 mi Calm Calm - N/A   Clear
7:53 AM 23.0 °F - 19.9 °F 88% 30.28 in 3.0 mi Calm Calm - N/A   Clear
8:45 AM 30.2 °F - 26.6 °F 86% 30.26 in 2.5 mi Calm Calm - N/A   Clear
8:53 AM 30.9 °F - 28.0 °F 89% 30.28 in 2.5 mi Calm Calm - N/A   Clear
9:01 AM 32.0 °F - 28.4 °F 87% 30.26 in 3.0 mi Calm Calm - N/A   Clear
9:18 AM 33.8 °F - 30.2 °F 87% 30.26 in 2.5 mi Calm Calm - N/A   Clear
9:32 AM 35.6 °F - 30.2 °F 81% 30.26 in 3.0 mi Calm Calm - N/A   Clear
9:53 AM 36.0 °F - 30.9 °F 82% 30.27 in 4.0 mi Calm Calm - N/A   Haze
10:53 AM 41.0 °F - 30.9 °F 67% 30.26 in 5.0 mi Calm Calm - N/A   Haze
11:53 AM 44.1 °F 42.5 °F 30.9 °F 60% 30.25 in 7.0 mi WNW 3.5 mph - N/A   Clear
12:53 PM 46.9 °F - 30.9 °F 54% 30.24 in 8.0 mi Calm Calm - N/A   Clear
1:53 PM 48.9 °F - 30.9 °F 50% 30.24 in 8.0 mi Calm Calm - N/A   Clear
2:53 PM 48.9 °F - 30.9 °F 50% 30.23 in 9.0 mi Calm Calm - N/A   Clear
3:53 PM 46.9 °F - 30.0 °F 52% 30.23 in 10.0 mi Calm Calm - N/A   Clear
4:53 PM 35.1 °F - 28.0 °F 76% 30.24 in 10.0 mi Calm Calm - N/A   Clear
5:53 PM 30.0 °F - 25.0 °F 82% 30.24 in 9.0 mi Calm Calm - N/A   Clear
6:53 PM 28.9 °F - 24.1 °F 82% 30.25 in 9.0 mi Calm Calm - N/A   Clear
7:53 PM 27.0 °F - 24.1 °F 89% 30.25 in 6.0 mi Calm Calm - N/A   Clear
8:53 PM 27.0 °F - 24.1 °F 89% 30.24 in 8.0 mi Calm Calm - N/A   Clear
9:53 PM 25.0 °F - 21.9 °F 88% 30.24 in 8.0 mi Calm Calm - N/A   Clear
10:53 PM 24.1 °F - 21.0 °F 88% 30.24 in 7.0 mi Calm Calm - N/A   Clear
11:53 PM 23.0 °F - 21.0 °F 92% 30.24 in 8.0 mi Calm Calm - N/A   Clear